Location: Karcze
(52.0945°N, 22.4786°E)
Time: 20:42:25
(UTC+00:00)

Transit 2A Rocket - Pass Details

Date: 06 August 2021
Orbit: 586 x 917 km, 66.7° (Epoch: 27 September)

Event Time Altitude Azimuth Distance (km) Brightness Sun altitude
Rises 18:55:55 0° 321° (NW) 3,220 10.2 -6.6°
Reaches altitude 10° 18:58:15 10° 324° (NW) 2,342 9.0 -6.8°
Maximum altitude 19:03:39 64° 47° (NE) 919 5.4 -7.5°
Drops below altitude 10° 19:09:29 10° 129° (SE) 2,530 7.0 -8.2°
Enters shadow 19:09:30 10° 129° (SE) 2,536 7.0 -8.2°
Sets 19:12:05 0° 132° (SE) 3,497 - -8.5°
